Weather History for KYNG - December, 2014

Change the Weather History Date:

Wednesday, December 31, 2014

  Actual Average Record
Temperature  
Mean Temperature 20 °F 26 °F  
Max Temperature 24 °F 33 °F 60 °F (1972)
Min Temperature 15 °F 20 °F -6 °F (1976)
Degree Days  
Heating Degree Days 45 38  
Month to date heating degree days 933 1076  
Since 1 July heating degree days 2343 2406  
Cooling Degree Days 0 0  
Month to date cooling degree days 0 0  
Year to date cooling degree days 533 544  
Moisture  
Dew Point 6 °F    
Average Humidity 57    
Maximum Humidity 73    
Minimum Humidity 41    
Precipitation  
Precipitation T in 0.09 in 0.84 in (1965)
Month to date precipitation 2.32 2.99  
Year to date precipitation 39.27 38.91  
Snow  
Snow T in 0.50 in - ()
Month to date snowfall 0.7 15.0  
Since 1 July snowfall 12.3 19.4  
Snow Depth T in    
Sea Level Pressure  
Sea Level Pressure 30.35 in    
Wind  
Wind Speed 14 mph (WSW)    
Max Wind Speed 24 mph    
Max Gust Speed 29 mph    
Visibility 10 miles    
Events Snow    
T = Trace of Precipitation, MM = Missing Value Source: NWS Daily Summary

Daily Weather History Graph

Daily Weather History Graph

Search for Another Location

Airport or City:

Trip Planner

Search our weather history database for the weather conditions in past years. The results will help you decide how hot, cold, wet, or windy it might be!

Date:

Astronomy

Dec. 31, 2014 Rise Set
Actual Time 7:48 AM EST 5:03 PM EST
Civil Twilight 7:17 AM EST 5:34 PM EST
Nautical Twilight 6:42 AM EST 6:09 PM EST
Astronomical Twilight 6:08 AM EST 6:42 PM EST
Moon 1:55 PM EST (12/31) 3:11 AM EST (12/31)
Length of Visible Light 10h 17m
Length of Day
9h 15m
Waxing Gibbous, 80% of the Moon is Illuminated
Dec 31
Waxing Gibbous
Jan 4
Full
Jan 13
Last Quarter
Jan 20
New
Jan 26
First Quarter

Hourly Weather History & Observations

Time (EST) Temp. Windchill Dew Point Humidity Pressure Visibility Wind Dir Wind Speed Gust Speed Precip Events Conditions
12:51 AM 21.0 °F 9.9 °F 10.0 °F 63% 30.44 in 9.0 mi WSW 10.4 mph - 0.00 in Snow Light Snow
1:51 AM 21.0 °F 8.6 °F 10.9 °F 65% 30.43 in 8.0 mi West 12.7 mph - 0.00 in Snow Light Snow
2:51 AM 21.0 °F 9.3 °F 10.9 °F 65% 30.45 in 9.0 mi West 11.5 mph - 0.00 in Snow Light Snow
3:51 AM 19.9 °F 5.7 °F 9.0 °F 62% 30.45 in 9.0 mi West 16.1 mph 21.9 mph 0.00 in Snow Light Snow
4:32 AM 19.0 °F 7.5 °F 10.9 °F 71% 30.38 in 9.0 mi West 10.4 mph - 0.00 in Snow Light Snow
4:51 AM 19.0 °F 7.5 °F 10.9 °F 71% 30.44 in 9.0 mi West 10.4 mph - 0.00 in Snow Light Snow
5:51 AM 17.1 °F 3.0 °F 9.0 °F 71% 30.45 in 9.0 mi WSW 13.8 mph - 0.00 in   Scattered Clouds
6:51 AM 16.0 °F 2.9 °F 9.0 °F 74% 30.45 in 10.0 mi WSW 11.5 mph - 0.00 in Snow Light Snow
7:51 AM 16.0 °F 2.9 °F 9.0 °F 74% 30.45 in 9.0 mi WSW 11.5 mph - 0.00 in Snow Light Snow
8:51 AM 16.0 °F 2.9 °F 7.0 °F 68% 30.46 in 9.0 mi WSW 11.5 mph - 0.00 in Snow Light Snow
9:51 AM 18.0 °F 4.2 °F 7.0 °F 62% 30.46 in 10.0 mi West 13.8 mph - 0.00 in   Scattered Clouds
10:51 AM 19.9 °F 5.2 °F 6.1 °F 55% 30.43 in 10.0 mi WSW 17.3 mph - N/A   Scattered Clouds
11:51 AM 19.9 °F 7.9 °F 6.1 °F 55% 30.40 in 10.0 mi WSW 11.5 mph - N/A   Scattered Clouds
12:51 PM 21.9 °F 8.7 °F 5.0 °F 48% 30.37 in 10.0 mi WSW 15.0 mph 20.7 mph N/A   Scattered Clouds
1:51 PM 24.1 °F 11.5 °F 5.0 °F 44% 30.33 in 10.0 mi West 15.0 mph 23.0 mph N/A   Scattered Clouds
2:51 PM 23.0 °F 9.6 °F 3.0 °F 42% 30.31 in 10.0 mi WSW 16.1 mph - N/A   Partly Cloudy
3:51 PM 23.0 °F 9.2 °F 3.0 °F 42% 30.29 in 10.0 mi WSW 17.3 mph 25.3 mph N/A   Clear
4:51 PM 21.9 °F 9.8 °F 1.9 °F 42% 30.26 in 10.0 mi SW 12.7 mph - N/A   Partly Cloudy
5:51 PM 21.0 °F 5.0 °F 1.9 °F 44% 30.25 in 10.0 mi SW 21.9 mph 25.3 mph N/A   Partly Cloudy
6:51 PM 19.9 °F 5.7 °F 3.0 °F 48% 30.24 in 10.0 mi WSW 16.1 mph 23.0 mph N/A   Partly Cloudy
7:51 PM 19.9 °F 6.2 °F 3.0 °F 48% 30.23 in 10.0 mi WSW 15.0 mph 24.2 mph N/A   Partly Cloudy
8:51 PM 19.9 °F 6.2 °F 3.9 °F 50% 30.22 in 10.0 mi WSW 15.0 mph - N/A   Partly Cloudy
9:51 PM 19.9 °F 6.7 °F 5.0 °F 52% 30.21 in 10.0 mi WSW 13.8 mph 26.5 mph N/A   Partly Cloudy
10:51 PM 19.0 °F 5.6 °F 5.0 °F 54% 30.20 in 10.0 mi WSW 13.8 mph 24.2 mph N/A   Mostly Cloudy
11:51 PM 19.9 °F 6.2 °F 5.0 °F 52% 30.19 in 10.0 mi WSW 15.0 mph 20.7 mph N/A   Overcast